STARLINK-32724 (62441 NORAD) Tracking and Keplerian Element Data

This shows tracking and keplerian element data for the satellite.

Feedback or suggestion? Click here.




ElementValue
Catalog62441
NameSTARLINK-32724
Epoch Orbit659
Epoch Day34.80241312
Epoch Year2025
RAAN36.8587
Inclination53.1622
Eccentricity0.0001349
Argument of Perigee122.5911
Mean Anonmoly237.5225
Mean Motion15.39623058
Decay Rate7.5E-06
L11 62441U 24251K 25034.80241312 .00000750 00000+0 28733-4 0 9994
L22 62441 53.1622 36.8587 0001349 122.5911 237.5225 15.39623058 6591



Live tracking and technical data element details for STARLINK-32724 (NORAD 62441). STARLINK-32724 can be tracked NOW for your location showing map with azimuth and elevation plus other details from your city location.







IsCatalogInMostPopularTable: catalog: 62441, numindb: 20
Update: records affected: 1



GetName: 62441 STARLINK-32724

Hit Count: updated at: Mon, 19 May 2025 01:45:29 GMT